Regional Weather Roundup
Issued by NWS

Home | Current Version | Previous Version | Graphics & Text | Print | Product List | Glossary On
Versions: 1 2 3 4 5 6 7 8 9 10 11 12 13 14 15 16 17 18 19 20 21 22 23 24 25 26 27 28 29 30 31 32 33 34 35 36 37 38 39 40 41 42 43 44 45 46 47 48 49 50
000
ASUS43 KLOT 300306
RWRIL

ILLINOIS REGIONAL WEATHER ROUNDUP
NATIONAL WEATHER SERVICE CHICAGO/ROMEOVILLE IL
1000 PM CDT MON SEP 29 2014

NOTE: "FAIR" INDICATES FEW OR NO CLOUDS BELOW 12,000 FEET WITH NO
SIGNIFICANT WEATHER AND/OR OBSTRUCTIONS TO VISIBILITY.

* THESE STATIONS ARE NOT UNDER NWS QUALITY CONTROL. THEY ALSO MAY NOT
  REPORT WEATHER SUCH AS PRECIPITATION OR FOG.

ILZ001-002-007-009-015-016-024-300400-
NORTHWEST ILLINOIS

CITY           SKY/WX    TMP DP  RH WIND       PRES   REMARKS
MOLINE         NOT AVBL
SAVANNA*       PTCLDY    60  52  75 NE15      30.01R
$$

ILZ003-004-008-010-011-017-018-300400-
NORTH CENTRAL ILLINOIS

CITY           SKY/WX    TMP DP  RH WIND       PRES   REMARKS
ROCKFORD       CLOUDY    58  52  80 NE16      30.04R
FREEPORT*      CLOUDY    55  51  87 NE12      30.04S
ROCHELLE*      CLOUDY    57  54  87 NE12      30.01S
DE KALB*       CLOUDY    55  51  87 NE12      30.02R
PERU*          PTCLDY    64  57  79 NE17G25   29.98R
$$

ILZ005-006-012>014-019>023-300400-
NORTHEAST ILLINOIS

CITY           SKY/WX    TMP DP  RH WIND       PRES   REMARKS
CHICAGO-OHARE  CLOUDY    56  51  84 N17G25    30.02R
CHICAGO-MIDWAY CLOUDY    60  54  80 NE17      30.01R
AURORA         CLOUDY    58  52  80 NE10      30.01R
LANSING*       CLOUDY    59  55  88 NE17      30.00S
JOLIET*        CLOUDY    58  54  85 NE9G22    29.99R
WAUKEGAN       NOT AVBL
DUPAGE AIRPORT CLOUDY    57  52  83 NE16      30.01R
KANKAKEE*      CLOUDY    61  58  91 N10       29.97S
WHEELING       CLOUDY    57  51  80 N14       30.04R
MORRIS*        CLOUDY    59  56  90 NE6       29.98R
ROMEOVILLE*    CLOUDY    58  54  87 NE13G21   30.00R
NORTHERLY ISL    N/A     58  53  84 N16         N/A
$$

LMZ740>746-300400-
SOUTHERN LAKE MICHIGAN

STATION/POSITION SKY/WX   TEMP    WIND        PRES    VSBY  WAVE
                          AIR SEA DIR/SP/G                  HT/PER
                          (F)     (DEG/KT/KT) (MB)    (MI)  (FT/S)
SOUTHERN BUOY              54 63  360/ 23/ 29 1015.8R         9/ 7
WAUKEGAN HARBOR                    20/ 22/ 25   N/A
HARRISON CRIB              57      10/ 21/ 25   N/A
BURNHAM HARBOR             58     270/ 14/ 20   N/A
CALUMET HARBOR             58     350/ 13/ 18 1015.2R
MICHIGAN CITY              58     360/ 22/ 26   N/A
MICHIGAN CITY 6N           59 65   20/ 17/ 23   N/A           6/ 2
ST. JOSEPH                 59 63  360/ 19/ 25   N/A           6/ 2
$$

ILZ025>027-034>036-040-047-049-050-058-095>099-300400-
WEST-CENTRAL ILLINOIS

CITY           SKY/WX    TMP DP  RH WIND       PRES   REMARKS
QUINCY         CLEAR     67  58  72 CALM      29.96S
GALESBURG*     CLEAR     60  58  91 S3        29.95F
MACOMB*        CLEAR     60  56  86 CALM      29.98S
JACKSONVILLE*  CLEAR     65  60  83 CALM      29.97S
PITTSFIELD*    CLEAR     64  59  84 CALM      29.97S
$$

ILZ028>032-037-038-041>044-048-051>054-059>061-300400-
CENTRAL ILLINOIS

CITY           SKY/WX    TMP DP  RH WIND       PRES   REMARKS
PONTIAC        PTCLDY    63  59  88 CALM      29.94S
DECATUR        CLEAR     65  59  81 CALM      29.96S
PEORIA         CLEAR     68  59  73 CALM      29.95S
LACON*         PTCLDY    62  57  86 CALM      29.94S
LINCOLN*       CLEAR     65  58  80 CALM      29.93S
SPRINGFIELD    CLEAR     63  58  83 CALM      29.96S
TAYLORVILLE    CLEAR     61  59  94 CALM      29.96S
$$

ILZ033-039-045-046-055>057-062-063-300400-
EAST-CENTRAL ILLINOIS

CITY           SKY/WX    TMP DP  RH WIND       PRES   REMARKS
CHAMPAIGN      CLEAR     64  55  72 NW3       29.96S
DANVILLE*      CLEAR     60  57  89 CALM      29.93R
RANTOUL*       CLEAR     66  54  64 W5        29.96S
MATTOON        CLEAR     63  57  81 CALM      29.95S
PARIS*         CLEAR     58  57  96 CALM      29.96S
$$

ILZ079-100>102-300400-
SOUTHWEST ILLINOIS

CITY           SKY/WX    TMP DP  RH WIND       PRES   REMARKS
ALTON          CLEAR     68  57  68 W6        29.97S
BELLEVILLE     CLEAR     64  60  87 CALM      29.96R FOG
CAHOKIA*       CLEAR     63  59  87 CALM      29.96S
SPARTA*        CLEAR     63  58  83 CALM      29.98S
$$

ILZ064>066-069>071-074>076-080>082-084>086-088>090-092>094-300400-
SOUTH-CENTRAL ILLINOIS

CITY           SKY/WX    TMP DP  RH WIND       PRES   REMARKS
CARBONDALE     CLEAR     60  56  86 CALM      29.96S
CAIRO*         CLEAR     64  60  88 CALM      29.96R
EFFINGHAM*     RAIN      62  57  86 CALM      29.96S
MARION         CLEAR     66  57  72 CALM      29.97S
CENTRALIA*     CLEAR     60  55  84 CALM      29.97S
SALEM*         CLEAR     62  60  91 CALM      29.96F
METROPOLIS*    CLEAR     59  57  93 CALM      29.95S
$$

ILZ067-068-072-073-078-083-087-091-300400-
SOUTHEAST ILLINOIS

CITY           SKY/WX    TMP DP  RH WIND       PRES   REMARKS
LAWRENCEVILLE  CLEAR     63  60  90 CALM      29.96S
FLORA*         CLEAR     59  57  92 CALM      29.96S
FAIRFIELD*     CLEAR     61  57  88 CALM      29.96S
HARRISBURG*    CLEAR     61  59  94 CALM      29.97S
ROBINSON*      CLEAR     60  58  93 CALM      29.96S
CARMI*         CLEAR     62  60  91 CALM      29.96R
$$

ABBREVIATIONS USED IN REMARKS
   TC - TEMPERATURE IN CELSIUS
  WCI - WIND CHILL INDEX
   HX - HEAT INDEX
  VSB - VISIBILITY
$$




USA.gov is the U.S. government's official web portal to all federal, state and local government web resources and services.